Regional Weather Roundup
Issued by NWS Green Bay, WI

Home | Current Version | Previous Version | Text Only | Print | Product List | Glossary On
Versions: 1 2 3 4 5 6 7 8 9 10 11 12 13 14 15 16 17 18 19 20 21 22 23 24 25 26 27 28 29 30 31 32 33 34 35 36 37 38 39 40 41 42 43 44 45 46 47 48 49 50
000
ASUS43 KGRB 261110
RWRGRB

NORTH-CENTRAL AND NORTHEAST WISCONSIN REGIONAL WEATHER ROUNDUP
NATIONAL WEATHER SERVICE GREEN BAY WI
600 AM CDT SAT JUL 26 2014

WIZ005-009-010>012-018-019-261200-
NORTH CENTRAL WISCONSIN

CITY           SKY/WX    TMP DP  RH WIND       PRES   REMARKS
IRONWOOD       NOT AVBL
MANITOWISH WTR CLOUDY    65  65 100 SW5       29.80S FOG
ARBOR VITAE    FOG       65  63  93 SW5       29.81S VSB 1
EAGLE RIVER    LGT RAIN  64  64 100 SW6       29.81S VSB 3/4
LAND O LAKES   CLOUDY    65  64  97 SW5       29.81S FOG
RHINELANDER    CLOUDY    63  63 100 SW8       29.82F FOG
PHILLIPS       CLOUDY    66  65  99 SW6       29.80S FOG
ANTIGO         CLOUDY    63  62  98 SW6       29.83S FOG
TOMAHAWK       CLOUDY    64  63  96 CALM      29.83R FOG
MERRILL        CLOUDY    65  64  99 W3        29.83R
$$

WIZ013-073-261200-
NORTHEAST WISCONSIN

CITY           SKY/WX    TMP DP  RH WIND       PRES   REMARKS
IRON MOUNTAIN  MOCLDY    61  59  93 SE3       29.77F FOG
MARINETTE      MOCLDY    64  61  88 W5        29.81R THUNDER
OCONTO         CLOUDY    64  63  95 SW3       29.80F
$$

WIZ017-030-035>037-045-261200-
CENTRAL WISCONSIN

CITY           SKY/WX    TMP DP  RH WIND       PRES   REMARKS
MEDFORD        CLOUDY    64  64  98 SW5       29.83R FOG
WAUSAU         CLOUDY    65  63  93 CALM      29.81F
MOSINEE        CLOUDY    63  63 100 S5        29.84S FOG
MARSHFIELD     CLOUDY    66  64  93 SW7       29.83S
WISC RAPIDS    CLOUDY    66  63  90 W5        29.85R
STEVENS POINT  CLOUDY    63  61  93 SW3       29.83F
WAUPACA        PTCLDY    64  62  91 CALM      29.83F FOG
SHAWANO        CLOUDY    66  62  87 SW6       29.82S
CLINTONVILLE   CLOUDY    64  61  88 S3        29.82S
$$

WIZ038-039-048-051-261200-
FOX VALLEY

CITY           SKY/WX    TMP DP  RH WIND       PRES   REMARKS
NWS GREEN BAY  CLOUDY    66  62  87 SW6       29.82F
APPLETON       MOCLDY    64  63  94 VRB6      29.84F
OSHKOSH        MOCLDY    64  61  90 CALM      29.84R FOG
FOND DU LAC    CLEAR     63  59  87 VRB3      29.84R
$$

WIZ022-050-052-261200-
EAST CENTRAL WISCONSIN

CITY           SKY/WX    TMP DP  RH WIND       PRES   REMARKS
STURGEON BAY   CLOUDY    64  61  88 S3        29.82S
MANITOWOC      CLOUDY    65  61  87 CALM      29.84R
SHEBOYGAN      MOCLDY    62  59  90 S5        29.83F
$$

LMZ563-521-522-541>543-261200-
LAKESHORE

STATION/POSITION TIME  TEMP    WIND        PRES    VSBY  WAVE
                       AIR SEA DIR/SP/G                  HT/PER
                 (UTC) (F)     (DEG/KT/KT) (MB)    (MI)  (FT/S)
SHEBOYGAN LKSHOR 1100   64     190/  8/  8 1010.2F
KEWAUNEE LKSHORE 1100   53     170/  3/  4 1010.6S
NORTHPORT PIER   1100   61     160/  4/  6 1009.5F
N MID LAKE BUOY  1100   60 56  210/ 10/ 12 1008.8F         2/ 5
CHAMBERS ISLAND  1100   66     190/  3/  6 1009.5S
MENOMINEE LKSHOR 1100   67     210/  4/  7 1010.0R
$$


USA.gov is the U.S. government's official web portal to all federal, state and local government web resources and services.